Corsicana, TX

6:01 PM CDT on May 24, 2017 (GMT -0500)
Campbell-Corsicana Municipal

Weather History for KCRS - April, 2013

Change the Weather History Date:

Tuesday, April 2, 2013

  Actual Average (KTYR) Record (KTYR)
Temperature  
Mean Temperature 67 °F -  
Max Temperature 72 °F 71 °F 90 °F (1943)
Min Temperature 55 °F 51 °F 29 °F (1962)
Cooling Degree Days 2    
Growing Degree Days 17 (Base 50)    
Moisture  
Dew Point 61 °F    
Average Humidity 85    
Maximum Humidity 96    
Minimum Humidity 66    
Precipitation  
Precipitation 0.29 in - - ()
Sea Level Pressure  
Sea Level Pressure 29.98 in    
Wind  
Wind Speed 7 mph (East)    
Max Wind Speed 24 mph    
Max Gust Speed 30 mph    
Visibility 6 miles    
Events Rain , Thunderstorm    
Averages and records for this station are not official NWS values.
T = Trace of Precipitation, MM = Missing Value Source: NWS Daily Summary

Daily Weather History Graph

Daily Weather History Graph

Search for Another Location

Airport or City:

Trip Planner

Search our weather history database for the weather conditions in past years. The results will help you decide how hot, cold, wet, or windy it might be!

Date:

Astronomy

Apr. 02, 2013 Rise Set
Actual Time 7:12 AM CDT 7:46 PM CDT
Civil Twilight 6:47 AM CDT 8:10 PM CDT
Nautical Twilight 6:18 AM CDT 8:39 PM CDT
Astronomical Twilight 5:49 AM CDT 9:09 PM CDT
Moon 1:37 AM CDT (4/2) 12:18 PM CDT (4/2)
Length of Visible Light 13h 23m
Length of Day
12h 33m
Waning Gibbous, 55% of the Moon is Illuminated
Apr 2
Waning Gibbous
Apr 2
Last Quarter
Apr 10
New
Apr 18
First Quarter
Apr 25
Full

Hourly Weather History & Observations

Time (CDT) Temp. Dew Point Humidity Pressure Visibility Wind Dir Wind Speed Gust Speed Precip Events Conditions
12:53 AM 64.9 °F 57.0 °F 75% 30.00 in 10.0 mi ESE 3.5 mph - N/A   Clear
1:53 AM 64.9 °F 57.0 °F 75% 29.99 in 10.0 mi SE 5.8 mph - N/A   Mostly Cloudy
2:53 AM 64.9 °F 59.0 °F 81% 30.01 in 9.0 mi South 5.8 mph - N/A   Mostly Cloudy
3:53 AM 64.9 °F 60.1 °F 84% 29.99 in 7.0 mi SSE 6.9 mph - N/A   Scattered Clouds
4:53 AM 64.0 °F 61.0 °F 90% 29.99 in 6.0 mi South 5.8 mph - N/A   Scattered Clouds
5:53 AM 63.0 °F 61.0 °F 93% 29.97 in 5.0 mi South 6.9 mph - N/A   Clear
6:53 AM 63.0 °F 61.0 °F 93% 29.97 in 5.0 mi SSE 9.2 mph - N/A   Clear
7:32 AM 62.6 °F 60.8 °F 94% 29.97 in 2.5 mi East 9.2 mph - N/A   Clear
7:53 AM 62.1 °F 60.1 °F 93% 30.00 in 2.5 mi NE 6.9 mph - N/A   Partly Cloudy
8:11 AM 62.6 °F 60.8 °F 94% 30.02 in 2.5 mi East 9.2 mph - N/A   Mostly Cloudy
8:33 AM 62.6 °F 60.8 °F 94% 30.02 in 3.0 mi East 9.2 mph - N/A   Overcast
8:53 AM 64.0 °F 61.0 °F 90% 30.03 in 4.0 mi SE 9.2 mph - N/A   Overcast
9:19 AM 64.4 °F 60.8 °F 88% 30.05 in 5.0 mi SE 6.9 mph - N/A   Overcast
9:53 AM 66.0 °F 61.0 °F 84% 30.03 in 5.0 mi ESE 8.1 mph - N/A   Haze
10:37 AM 68.0 °F 60.8 °F 78% 30.04 in 6.0 mi ESE 8.1 mph - N/A   Haze
10:53 AM 69.1 °F 62.1 °F 78% 30.02 in 6.0 mi SE 8.1 mph - N/A   Haze
11:21 AM 68.0 °F 60.8 °F 78% 30.03 in 7.0 mi SE 8.1 mph - N/A   Mostly Cloudy
11:53 AM 70.0 °F 61.0 °F 73% 30.02 in 8.0 mi SE 9.2 mph - N/A   Overcast
12:53 PM 71.1 °F 60.1 °F 68% 30.01 in 9.0 mi SE 9.2 mph - N/A   Overcast
1:03 PM 71.6 °F 60.8 °F 69% 30.02 in 9.0 mi SE 9.2 mph - N/A   Overcast
1:53 PM 72.0 °F 60.1 °F 66% 29.99 in 10.0 mi SE 6.9 mph - N/A   Overcast
2:53 PM 72.0 °F 60.1 °F 66% 29.96 in 9.0 mi ESE 3.5 mph - N/A   Overcast
3:06 PM 71.6 °F 60.8 °F 69% 29.97 in 9.0 mi Calm Calm - N/A Thunderstorm Overcast
3:53 PM 66.0 °F 63.0 °F 90% 29.98 in 2.5 mi NW 9.2 mph - 0.02 in Rain , Thunderstorm Heavy Thunderstorms and Rain
3:58 PM 66.2 °F 62.6 °F 88% 29.98 in 1.8 mi NW 10.4 mph - 0.01 in Rain , Thunderstorm Rain
4:03 PM 64.4 °F 62.6 °F 94% 29.98 in 2.0 mi NNW 9.2 mph - 0.02 in Rain , Thunderstorm Rain
4:16 PM 64.4 °F 62.6 °F 94% 29.97 in 0.8 mi North 9.2 mph - 0.05 in Rain , Thunderstorm Heavy Thunderstorms and Rain
4:25 PM 64.4 °F 62.6 °F 94% 29.97 in 1.0 mi NW 6.9 mph - 0.10 in Rain , Thunderstorm Thunderstorms and Rain
4:35 PM 64.4 °F 62.6 °F 94% 29.96 in 3.0 mi North 6.9 mph - 0.15 in Rain , Thunderstorm Light Thunderstorms and Rain
4:45 PM 64.4 °F 62.6 °F 94% 29.96 in 6.0 mi NNE 4.6 mph - 0.19 in   Overcast
4:53 PM 64.0 °F 63.0 °F 96% 29.95 in 6.0 mi NNE 5.8 mph - 0.22 in   Overcast
5:53 PM 64.0 °F 61.0 °F 90% 29.90 in 10.0 mi East 9.2 mph - 0.05 in   Mostly Cloudy
6:53 PM 64.9 °F 61.0 °F 87% 29.91 in 10.0 mi East 5.8 mph - N/A   Partly Cloudy
7:53 PM 63.0 °F 61.0 °F 93% 29.93 in 10.0 mi ENE 4.6 mph - N/A   Partly Cloudy
8:53 PM 63.0 °F 60.1 °F 90% 29.93 in 10.0 mi NNE 9.2 mph - N/A   Overcast
9:53 PM 63.0 °F 59.0 °F 87% 29.95 in 10.0 mi NE 11.5 mph - N/A   Overcast
10:38 PM 62.6 °F 60.8 °F 94% 29.94 in 9.0 mi NE 15.0 mph 23.0 mph N/A   Overcast
10:53 PM 63.0 °F 60.1 °F 90% 29.95 in 9.0 mi NE 15.0 mph 23.0 mph N/A   Overcast
11:53 PM 55.0 °F 48.9 °F 80% 29.96 in 10.0 mi NE 24.2 mph 29.9 mph N/A   Overcast